Montauk, NY

3:26 AM EDT on October 20, 2017 (GMT -0400)
Montauk

Weather History for KMTP - August, 2014

Change the Weather History Date:

Saturday, August 9, 2014

  Actual Average (KHTO) Record (KHTO)
Temperature  
Mean Temperature 74 °F -  
Max Temperature 82 °F 81 °F 95 °F (2001)
Min Temperature 66 °F 65 °F 53 °F (1935)
Cooling Degree Days 9    
Growing Degree Days 24 (Base 50)    
Moisture  
Dew Point 62 °F    
Average Humidity 68    
Maximum Humidity 90    
Minimum Humidity 44    
Precipitation  
Precipitation 0.00 in - - ()
Sea Level Pressure  
Sea Level Pressure 30.08 in    
Wind  
Wind Speed 3 mph (West)    
Max Wind Speed 8 mph    
Max Gust Speed -    
Averages and records for this station are not official NWS values.
T = Trace of Precipitation, MM = Missing Value Source: NWS Daily Summary

Daily Weather History Graph

Daily Weather History Graph

Search for Another Location

Airport or City:

Trip Planner

Search our weather history database for the weather conditions in past years. The results will help you decide how hot, cold, wet, or windy it might be!

Date:

Astronomy

Aug. 09, 2014 Rise Set
Actual Time 5:51 AM EDT 7:54 PM EDT
Civil Twilight 5:21 AM EDT 8:24 PM EDT
Nautical Twilight 4:44 AM EDT 9:01 PM EDT
Astronomical Twilight 4:03 AM EDT 9:41 PM EDT
Moon 6:53 PM EDT (8/9) 4:28 AM EDT (8/9)
Length of Visible Light 15h 03m
Length of Day
14h 03m
Waxing Gibbous, 98% of the Moon is Illuminated
Aug 9
Waxing Gibbous
Aug 10
Full
Aug 17
Last Quarter
Aug 25
New
Sep 2
First Quarter

Hourly Weather History & Observations

Time (EDT) Temp. Heat Index Dew Point Humidity Pressure Visibility Wind Dir Wind Speed Gust Speed Precip Events Conditions
12:54 AM 69.1 °F - 61.0 °F 75% 30.06 in - West 3.5 mph - N/A   Unknown
1:54 AM 68.0 °F - 61.0 °F 78% 30.05 in - Calm Calm - N/A   Unknown
2:54 AM 69.1 °F - 61.0 °F 75% 30.05 in - WNW 3.5 mph - N/A   Unknown
3:54 AM 68.0 °F - 61.0 °F 78% 30.06 in - West 3.5 mph - N/A   Unknown
4:54 AM 68.0 °F - 61.0 °F 78% 30.07 in - West 4.6 mph - N/A   Unknown
5:54 AM 66.9 °F - 60.1 °F 79% 30.09 in - West 3.5 mph - N/A   Unknown
6:54 AM 68.0 °F - 61.0 °F 78% 30.09 in - Calm Calm - N/A   Unknown
7:54 AM 71.1 °F - 61.0 °F 70% 30.11 in - WNW 5.8 mph - N/A   Unknown
8:54 AM 71.1 °F - 60.1 °F 68% 30.11 in - NW 5.8 mph - N/A   Unknown
9:54 AM 73.0 °F - 60.1 °F 64% 30.11 in - NNW 3.5 mph - N/A   Unknown
10:54 AM 75.9 °F - 60.1 °F 58% 30.10 in - WNW 4.6 mph - N/A   Unknown
11:54 AM 77.0 °F - 59.0 °F 54% 30.10 in - West 8.1 mph - N/A   Unknown
12:54 PM 79.0 °F - 59.0 °F 50% 30.08 in - WNW 5.8 mph - N/A   Unknown
1:54 PM 81.0 °F 81.3 °F 59.0 °F 47% 30.07 in - West 6.9 mph - N/A   Unknown
2:54 PM 82.0 °F 82.0 °F 57.9 °F 44% 30.06 in - West 6.9 mph - N/A   Unknown
3:54 PM 82.0 °F 83.4 °F 64.0 °F 54% 30.06 in - Variable 4.6 mph - N/A   Unknown
4:54 PM 81.0 °F 82.7 °F 64.9 °F 58% 30.06 in - SSW 4.6 mph - N/A   Unknown
5:54 PM 78.1 °F - 64.0 °F 62% 30.07 in - SSW 3.5 mph - N/A   Unknown
6:54 PM 75.9 °F - 62.1 °F 62% 30.08 in - SSW 3.5 mph - N/A   Unknown
7:54 PM 73.9 °F - 64.0 °F 71% 30.08 in - Calm Calm - N/A   Unknown
8:54 PM 73.0 °F - 64.9 °F 76% 30.09 in - Calm Calm - N/A   Unknown
9:54 PM 73.0 °F - 64.0 °F 73% 30.10 in - Calm Calm - N/A   Unknown
10:54 PM 70.0 °F - 66.0 °F 87% 30.10 in - Calm Calm - N/A   Unknown
11:54 PM 69.1 °F - 66.0 °F 90% 30.11 in - Calm Calm - N/A   Unknown